User: anonymous   Login
Location: Unspecified
(0.0000°N, 0.0000°E)
Time: 04:46:10
(UTC+00:00)
Language:

COSMOS-2414 - Orbit

View from above orbital plane
View from above orbital plane
View from above satellite
View from above satellite

Ground track
Ground track

The orbit data is extracted from the following two-line orbital elements,

1 28521U 05002A   18267.58622946 +.00000030 +00000-0 +11324-4 0  9999
2 28521 082.9525 017.7574 0041645 095.0402 265.5514 13.87603083692680
Epoch (UTC): 24 September 2018 14:04:10
Eccentricity: 0.0041645
inclination: 82.9525°
perigee height: 906 km
apogee height: 967 km
right ascension of ascending node: 17.7574°
argument of perigee: 95.0402°
revolutions per day: 13.87603083
mean anomaly at epoch: 265.5514°
orbit number at epoch: 69268

The dashed part of the orbit path shows where the satellite is in the earth's shadow,  

DLR